CASE2 Weather Reports


Display with metric or nautical units.
time (UTC)temp
F
wind
direction
speed
MPH
gust
MPH
rain 1hr
in
rain 24hr
in
rain mn
in
humidity
%
barometer
mb
20260509213017 39 342 0.0 0.0 0.00 0.00 0.00 84 1019.6
20260509211516 40 342 0.0 0.0 0.00 0.00 0.00 83 1019.5
20260509210020 41 342 0.0 0.0 0.00 0.00 0.00 83 1019.6
20260509204600 42 342 0.0 0.0 0.00 0.00 0.00 83 1019.7
20260509203059 42 342 0.0 0.0 0.00 0.00 0.00 82 1019.7
20260509201556 43 342 0.0 0.0 0.00 0.00 0.00 81 1019.7
20260509200051 44 342 0.0 0.0 0.00 0.00 0.00 80 1019.7
20260509194545 45 342 0.0 0.0 0.00 0.00 0.00 80 1019.7
20260509193052 46 342 0.0 0.0 0.00 0.00 0.00 78 1019.6
20260509191545 47 342 0.0 0.0 0.00 0.00 0.00 76 1019.6
20260509190046 49 342 0.0 0.0 0.00 0.00 0.00 74 1019.5
20260509184546 50 342 0.0 0.0 0.00 0.00 0.00 72 1019.4
20260509183043 51 342 0.0 1.0 0.00 0.00 0.00 69 1019.3
20260509181542 53 342 0.0 0.0 0.00 0.00 0.00 68 1019.2
20260509180029 54 342 0.0 0.0 0.00 0.00 0.00 65 1019.3
20260509174530 54 342 0.0 0.0 0.00 0.00 0.00 63 1019.3
20260509173030 55 342 0.0 2.0 0.00 0.00 0.00 71 1019.3
20260509171536 55 289 0.0 3.0 0.00 0.00 0.00 73 1019.3
20260509170027 55 290 0.0 2.0 0.00 0.00 0.00 74 1019.4
20260509164527 56 286 0.0 3.0 0.00 0.00 0.00 72 1019.4
20260509163049 57 285 0.0 3.0 0.00 0.00 0.00 68 1019.4
20260509161530 59 360 0.0 2.0 0.00 0.00 0.00 60 1019.5
20260509160010 58 329 0.0 3.0 0.00 0.00 0.00 62 1019.6
20260509154507 58 328 0.0 3.0 0.00 0.00 0.00 66 1019.8
20260509153016 58 328 0.0 3.0 0.00 0.00 0.00 68 1020.0
20260509151508 59 350 0.0 4.0 0.00 0.00 0.00 64 1020.0
20260509150002 58 360 0.0 4.0 0.00 0.00 0.00 67 1020.3
20260509144502 58 30 0.0 4.0 0.00 0.00 0.00 67 1020.5
20260509143107 58 11 1.0 5.0 0.00 0.00 0.00 67 1020.5
20260509141558 59 343 0.0 7.0 0.00 0.00 0.00 66 1020.6
20260509140043 58 32 1.0 5.0 0.00 0.00 0.00 65 1020.8
20260509134541 59 334 0.0 5.0 0.00 0.00 0.00 63 1021.0
20260509133042 59 61 0.0 4.0 0.00 0.00 0.00 63 1021.3
20260509131537 58 360 0.0 6.0 0.00 0.00 0.00 61 1021.5
20260509130035 59 343 1.0 4.0 0.00 0.00 0.00 60 1021.6
20260509124540 59 360 1.0 6.0 0.00 0.00 0.00 59 1021.8
20260509123033 59 37 0.0 5.0 0.00 0.00 0.00 59 1022.1
20260509121541 59 11 0.0 4.0 0.00 0.00 0.00 58 1022.2
20260509120016 59 360 0.0 6.0 0.00 0.00 0.00 59 1022.2
20260509114530 58 323 0.0 5.0 0.00 0.00 0.00 57 1022.4
20260509113013 58 317 0.0 3.0 0.00 0.00 0.00 58 1022.5
20260509111510 58 315 0.0 4.0 0.00 0.00 0.00 58 1022.6
20260509110012 58 322 0.0 5.0 0.00 0.00 0.00 55 1022.7
20260509104507 57 306 0.0 3.0 0.00 0.00 0.00 51 1022.8
20260509103005 57 309 0.0 4.0 0.00 0.00 0.00 50 1022.8
20260509101506 58 317 0.0 3.0 0.00 0.00 0.00 46 1022.8
20260509100048 57 54 1.0 5.0 0.00 0.00 0.00 39 1022.9
20260509094549 56 70 1.0 4.0 0.00 0.00 0.00 37 1023.0
20260509093043 55 56 2.0 5.0 0.00 0.00 0.00 38 1023.0
20260509091542 55 54 0.0 5.0 0.00 0.00 0.00 40 1023.2
20260509090056 55 39 0.0 5.0 0.00 0.00 0.00 40 1023.2
20260509084537 54 10 1.0 4.0 0.00 0.00 0.00 42 1023.3
20260509083043 53 33 0.0 4.0 0.00 0.00 0.00 47 1023.3
20260509081528 52 30 0.0 3.0 0.00 0.00 0.00 48 1023.4
20260509080012 51 30 0.0 5.0 0.00 0.00 0.00 50 1023.4
20260509074518 51 30 0.0 4.0 0.00 0.00 0.00 50 1023.5
20260509073002 51 52 1.0 5.0 0.00 0.00 0.00 52 1023.5
20260509071602 50 44 2.0 5.0 0.00 0.00 0.00 53 1023.7
20260509070059 49 360 0.0 4.0 0.00 0.00 0.00 58 1023.7
20260509064551 48 45 0.0 6.0 0.00 0.00 0.00 57 1023.8
20260509063058 48 360 0.0 4.0 0.00 0.00 0.00 58 1023.8
20260509061546 48 40 0.0 4.0 0.00 0.00 0.00 61 1023.8
20260509060033 48 53 0.0 4.0 0.00 0.00 0.00 63 1023.8
20260509054529 47 72 0.0 3.0 0.00 0.00 0.00 71 1023.8
20260509053035 45 65 0.0 1.0 0.00 0.00 0.00 75 1023.9
20260509051520 43 91 0.0 1.0 0.00 0.00 0.00 81 1023.9
20260509050035 41 90 0.0 2.0 0.00 0.00 0.00 87 1023.9
20260509044512 38 91 0.0 3.0 0.00 0.00 0.00 91 1023.9
20260509043006 34 360 0.0 1.0 0.00 0.00 0.00 92 1023.8
20260509041503 31 360 0.0 0.0 0.00 0.00 0.00 90 1023.8
20260509040042 30 360 0.0 0.0 0.00 0.00 0.00 90 1023.8
20260509034539 30 360 0.0 0.0 0.00 0.00 0.00 89 1023.9
20260509033035 30 360 0.0 0.0 0.00 0.00 0.00 89 1024.0
20260509031529 30 360 0.0 0.0 0.00 0.00 0.00 89 1024.0
20260509030026 30 360 0.0 0.0 0.00 0.00 0.00 88 1024.0
20260509024527 30 360 0.0 0.0 0.00 0.00 0.00 88 1024.0
20260509023021 30 360 0.0 0.0 0.00 0.00 0.00 88 1024.0
20260509021519 30 360 0.0 0.0 0.00 0.00 0.00 87 1024.2
20260509020021 30 360 0.0 0.0 0.00 0.00 0.00 87 1024.4
20260509014518 30 360 0.0 0.0 0.00 0.00 0.00 87 1024.4
20260509013111 30 360 0.0 0.0 0.00 0.00 0.00 86 1024.5
20260509011605 31 360 0.0 0.0 0.00 0.00 0.00 85 1024.5
20260509010049 31 360 0.0 0.0 0.00 0.00 0.00 85 1024.5
20260509004556 32 360 0.0 0.0 0.00 0.00 0.00 84 1024.5
20260509003046 32 360 0.0 0.0 0.00 0.00 0.00 84 1024.6
20260509001549 33 360 0.0 0.0 0.00 0.00 0.00 83 1024.7
20260509000047 33 360 0.0 0.0 0.00 0.00 0.00 83 1024.8
20260508234544 33 360 0.0 0.0 0.00 0.00 0.00 83 1024.8
20260508233044 33 360 0.0 0.0 0.00 0.00 0.00 82 1024.9
20260508231549 34 360 0.0 0.0 0.00 0.00 0.00 81 1025.0
20260508230030 34 360 0.0 0.0 0.00 0.00 0.00 80 1025.0
20260508224548 35 360 0.0 0.0 0.00 0.00 0.00 80 1025.0
20260508223029 35 134 0.0 0.0 0.00 0.00 0.00 79 1024.9
20260508221533 35 134 0.0 0.0 0.00 0.00 0.00 78 1024.8
20260508220127 36 134 0.0 0.0 0.00 0.00 0.00 77 1024.8
20260508214537 37 134 0.0 0.0 0.00 0.00 0.00 76 1024.7